Location: Baia Mare
(47.6567°N, 23.5850°E)
Time: 23:24:07
(UTC+03:00)

ISS - Pass Details

Date: 18 September 2019
Orbit: 411 x 421 km, 51.6° (Epoch: 19 September)

Event Time Altitude Azimuth Distance (km) Brightness Sun altitude
Rises 20:48:55 0° 196° (SSW) 2,329 0.0 -13.4°
Reaches altitude 10° 20:51:41 10° 171° (S) 1,473 -1.3 -13.9°
Enters shadow 20:51:56 11° 167° (SSE) 1,417 -1.4 -13.9°
